[[{"header":{"parameterUnit":"m.s-1","parameterCategory":1,"la1":30.2991,"la2":30.254,"lo1":-89.0895,"lo2":-89.0444,"dy":0.0017,"dx":0.0017,"nx":28,"ny":28,"refTime":"2024-07-12T09:00:00:Z","depth":0,"parameterNumber":2,"parameterNumberName":"U-component_of_WINDS"},"data":[0,0,0,0,0,0,0,0,0,0,0,0,0,0,0,0,0,0,0,0,0,0,0,0,0,0,0,0,0,0,0,0,0,0,0,0,0,0,0,0,0,0,0,0,0,0,0,0,0,0,0,0,0,0,0,0,0,0,1.2792,1.2793,0,1.2928,1.293,1.2932,1.2968,1.2967,1.2966,1.2965,1.3108,1.3112,1.3117,0,0,0,0,0,0,0,0,0,0,0,0,0,1.2562,1.2566,1.2791,1.2793,1.2795,1.2928,1.293,1.2932,1.2968,1.2967,1.2966,1.2965,1.3106,1.3112,1.3117,0,0,0,0,0,0,0,0,0,0,0,0,0,1.2676,1.2567,1.2791,1.2829,1.2834,1.2928,1.293,1.2932,1.2968,1.2967,1.2966,1.2964,1.3104,1.3111,1.3118,1.3185,0,0,1.3139,1.3142,0,0,0,0,0,0,0,0,1.267,1.2685,1.2822,1.2826,1.2832,1.293,1.2901,1.3017,1.2968,1.2917,1.2965,1.2964,1.305,1.3061,1.3089,1.3192,1.3198,1.3139,1.3143,1.3146,1.3148,0,0,0,0,0,0,0,1.2662,1.2679,1.2846,1.2824,1.283,1.2839,1.2854,1.2923,1.2989,1.2921,1.2924,1.294,1.3052,1.3083,1.3093,1.32,1.3139,1.3145,1.3149,1.3152,1.3362,1.3364,0,0,0,0,0,0,1.2647,1.2672,1.2841,1.285,1.2746,1.2844,1.2861,1.29,1.2988,1.3,1.2941,1.2941,1.3072,1.3085,1.3098,1.3181,1.3146,1.3153,1.3157,1.3361,1.3362,1.3364,0,0,0,0,0,0,1.2642,1.2662,1.2836,1.2762,1.2785,1.2849,1.2893,1.2903,1.2933,1.3003,1.3015,1.296,1.3071,1.3088,1.3162,1.3187,1.3156,1.3162,1.3359,1.3361,1.3363,1.3349,0,0,0,0,0,0,1.2635,1.266,1.2686,1.2762,1.2788,1.2898,1.2894,1.2907,1.2945,1.2946,1.3024,1.3035,1.3071,1.3152,1.3169,1.3196,1.3167,1.3357,1.336,1.3363,1.3347,1.335,1.3353,0,0,0,0,0,1.2627,1.2677,1.2687,1.2707,1.2822,1.2899,1.2914,1.2954,1.2947,1.2973,1.3018,1.3033,1.3181,1.3159,1.3179,1.3208,1.3356,1.3359,1.3362,1.3346,1.335,1.3353,0,0,0,0,0,0,1.2603,1.2688,1.27,1.2776,1.283,1.2905,1.294,1.2957,1.3014,1.3013,1.3061,1.3078,1.3149,1.3186,1.316,1.3277,1.3269,1.3276,1.325,1.3254,1.3256,1.3246,1.3173,0,0,0,0,0,1.2607,1.2662,1.2733,1.2793,1.282,1.2875,1.291,1.2936,1.2994,1.3017,1.3067,1.3123,1.3182,1.322,1.3278,1.3353,1.337,1.3382,1.3385,1.3387,1.3393,1.3433,1.344,1.3375,1.3375,1.3375,0,0,1.2615,1.2668,1.27,1.279,1.2835,1.289,1.2894,1.2953,1.2995,1.3026,1.3098,1.3137,1.3202,1.3276,1.3312,1.331,1.3414,1.3391,1.3392,1.3397,1.3438,1.3444,1.3449,1.3377,1.3377,1.3377,0,0,1.2658,1.2704,1.2759,1.2803,1.287,1.2906,1.2919,1.2992,1.3018,1.3091,1.3115,1.3166,1.3267,1.3312,1.3348,1.3406,1.3422,1.3424,1.3438,1.3477,1.3482,1.3487,1.3507,1.3513,1.343,1.343,1.343,0,1.266,1.2744,1.2785,1.2842,1.2881,1.291,1.2966,1.3007,1.309,1.3116,1.3112,1.3238,1.3285,1.3369,1.3383,1.3412,1.3428,1.3416,1.3478,1.3483,1.3488,1.3508,1.3515,1.3429,1.3429,1.343,1.343,0,1.2743,1.2801,1.2837,1.2915,1.2958,1.3014,1.3063,1.3101,1.3122,1.3159,1.3232,1.3289,1.3358,1.338,1.3403,1.3468,1.3464,1.3469,1.3462,1.3494,1.3512,1.352,1.3429,1.3429,1.3429,1.3429,0,0,1.2776,1.2874,1.2887,1.2922,1.2997,1.3043,1.31,1.3167,1.3198,1.3254,1.3303,1.3387,1.3391,1.3432,1.346,1.3494,1.3535,1.3495,1.3497,1.35,1.3609,1.3604,1.3612,1.3546,1.3548,1.3549,1.3603,0,1.2827,1.293,1.2967,1.3052,1.3105,1.3133,1.3183,1.3234,1.327,1.332,1.336,1.3418,1.3419,1.3444,1.3479,1.3523,1.3558,1.3519,1.3592,1.3594,1.3574,1.3622,1.3619,1.3667,1.3611,1.3612,1.3613,0,1.2902,1.2957,1.3046,1.3114,1.3138,1.3182,1.3245,1.3293,1.3352,1.3375,1.342,1.3445,1.3505,1.3494,1.3578,1.355,1.3582,1.3608,1.3611,1.3619,1.3605,1.3631,1.3683,1.369,1.3625,1.3624,1.3623,0,1.2916,1.3013,1.3078,1.3108,1.3188,1.3218,1.3253,1.331,1.3348,1.3403,1.3428,1.349,1.3524,1.3572,1.3612,1.3601,1.3692,1.3685,1.3712,1.3711,1.3731,1.3729,1.3788,1.3752,1.3751,1.3751,1.3751,0,1.2969,1.3023,1.3085,1.3125,1.3186,1.3228,1.3286,1.3323,1.3374,1.3421,1.345,1.3494,1.3545,1.3596,1.3629,1.3692,1.3708,1.3728,1.3736,1.3725,1.3722,1.3746,1.3744,1.3753,1.3753,1.3752,1.3752,0,1.2995,1.3039,1.3112,1.3182,1.3201,1.3242,1.3301,1.3341,1.3377,1.3437,1.3453,1.351,1.3571,1.3616,1.3696,1.3717,1.3785,1.3793,1.3765,1.3769,1.3793,1.379,1.387,1.3882,1.3838,1.3838,1.3838,0,1.3026,1.3067,1.3141,1.3175,1.3209,1.3263,1.3301,1.3344,1.3382,1.3451,1.3482,1.3545,1.3597,1.3693,1.3742,1.3802,1.3812,1.3836,1.3821,1.3809,1.3811,1.3808,1.3812,1.3837,1.3838,1.3838,1.3838,0,1.3076,1.3095,1.3149,1.3209,1.3253,1.3303,1.3353,1.3379,1.3431,1.3472,1.3535,1.3575,1.3655,1.3717,1.3782,1.3818,1.3836,1.3842,1.3852,1.3841,1.3822,1.3832,1.3769,1.384,1.384,1.384,1.384,1.384,1.3105,1.3143,1.32,1.3258,1.33,1.3346,1.3386,1.3426,1.3479,1.3547,1.3569,1.3633,1.3689,1.3778,1.3815,1.3865,1.3865,1.3879,1.3883,1.3885,1.3884,1.3814,1.3877,1.3877,1.3877,1.3877,1.3877,0,1.3156,1.3194,1.3246,1.3315,1.336,1.3373,1.3429,1.3466,1.3522,1.3573,1.3623,1.3694,1.3753,1.3805,1.3867,1.3897,1.3907,1.3912,1.391,1.3918,1.3881,1.3866,1.3903,1.3903,1.3903,1.3903,1.3903,1.3903,1.3187,1.3251,1.3277,1.3361,1.3399,1.3461,1.3492,1.3534,1.3575,1.3652,1.3701,1.3735,1.3786,1.3851,1.3906,1.392,1.3941,1.3943,1.3959,1.3924,1.3921,1.3918,1.3904,1.3948,1.3948,1.3992,1.3992,1.3992]},{"header":{"parameterUnit":"m.s-1","parameterCategory":1,"la1":30.2991,"la2":30.254,"lo1":-89.0895,"lo2":-89.0444,"dy":0.0017,"dx":0.0017,"nx":28,"ny":28,"refTime":"2024-07-12T09:00:00:Z","depth":0,"parameterNumber":3,"parameterNumberName":"V-component_of_WINDS"},"data":[0,0,0,0,0,0,0,0,0,0,0,0,0,0,0,0,0,0,0,0,0,0,0,0,0,0,0,0,0,0,0,0,0,0,0,0,0,0,0,0,0,0,0,0,0,0,0,0,0,0,0,0,0,0,0,0,0,0,3.2521,3.2521,0,3.254,3.254,3.254,3.2533,3.2532,3.2532,3.2531,3.2547,3.2548,3.2549,0,0,0,0,0,0,0,0,0,0,0,0,0,3.2471,3.2472,3.2521,3.2521,3.2521,3.254,3.254,3.254,3.2533,3.2532,3.2532,3.2531,3.2547,3.2548,3.2549,0,0,0,0,0,0,0,0,0,0,0,0,0,3.2491,3.2472,3.2521,3.252,3.252,3.254,3.254,3.254,3.2533,3.2532,3.2531,3.2531,3.2547,3.2548,3.2549,3.2571,0,0,3.2553,3.2554,0,0,0,0,0,0,0,0,3.249,3.2493,3.2519,3.252,3.252,3.2533,3.2529,3.255,3.2533,3.2528,3.2531,3.253,3.2543,3.2545,3.255,3.2571,3.2572,3.2553,3.2554,3.2555,3.2555,0,0,0,0,0,0,0,3.2489,3.2492,3.2528,3.252,3.252,3.2516,3.2518,3.2533,3.2539,3.2528,3.2528,3.253,3.2543,3.2548,3.255,3.2572,3.2553,3.2554,3.2555,3.2556,3.2607,3.2608,0,0,0,0,0,0,3.2488,3.2491,3.2528,3.2529,3.2503,3.2518,3.252,3.253,3.2539,3.2539,3.2531,3.253,3.2547,3.2548,3.255,3.2573,3.2555,3.2556,3.2557,3.2607,3.2607,3.2608,0,0,0,0,0,0,3.2487,3.2491,3.2527,3.251,3.2514,3.2519,3.253,3.253,3.2536,3.2541,3.2541,3.2535,3.2546,3.2549,3.2565,3.2573,3.2556,3.2558,3.2606,3.2607,3.2608,3.262,0,0,0,0,0,0,3.2486,3.2491,3.2501,3.251,3.2515,3.2543,3.2531,3.2531,3.2538,3.2537,3.2545,3.2546,3.2546,3.2563,3.2566,3.2575,3.2559,3.2605,3.2606,3.2607,3.2618,3.2621,3.2623,0,0,0,0,0,3.2484,3.2504,3.2502,3.2506,3.2528,3.2543,3.2546,3.2546,3.2539,3.2548,3.255,3.2546,3.2572,3.2565,3.2568,3.2577,3.2605,3.2606,3.2607,3.2617,3.262,3.2623,0,0,0,0,0,0,3.2496,3.2505,3.2503,3.2527,3.2534,3.2542,3.2553,3.255,3.2559,3.2558,3.2557,3.2558,3.2574,3.2578,3.2569,3.2596,3.2587,3.2589,3.2593,3.2596,3.2598,3.2597,3.256,0,0,0,0,0,3.2501,3.2515,3.2522,3.2542,3.2546,3.2549,3.2556,3.2555,3.2562,3.2565,3.2569,3.2575,3.2584,3.2591,3.26,3.2619,3.2618,3.2626,3.2629,3.263,3.2632,3.2638,3.2641,3.2613,3.2613,3.2613,0,0,3.2512,3.2519,3.2528,3.2544,3.255,3.2561,3.2552,3.2565,3.2573,3.2567,3.2582,3.2585,3.2591,3.2608,3.2615,3.2611,3.2639,3.2632,3.2633,3.2634,3.264,3.2643,3.2645,3.2613,3.2613,3.2613,0,0,3.2538,3.2546,3.2562,3.2567,3.2576,3.2577,3.2581,3.2588,3.259,3.2605,3.26,3.2608,3.2625,3.2628,3.2632,3.2655,3.265,3.2658,3.2669,3.2676,3.2678,3.268,3.2685,3.2687,3.266,3.266,3.266,0,3.2551,3.257,3.257,3.2583,3.2589,3.2584,3.2598,3.2603,3.2614,3.2616,3.2612,3.263,3.2635,3.265,3.2655,3.266,3.2661,3.2657,3.2678,3.268,3.2681,3.2686,3.2689,3.266,3.266,3.266,3.266,0,3.2583,3.2595,3.2607,3.2617,3.2624,3.2637,3.2637,3.2644,3.2642,3.2643,3.2656,3.266,3.2668,3.2672,3.2671,3.2686,3.2683,3.2678,3.2669,3.2685,3.2689,3.2692,3.2661,3.2661,3.2661,3.2661,0,0,3.2618,3.2626,3.263,3.2633,3.264,3.2649,3.266,3.2669,3.2673,3.2679,3.2687,3.27,3.2694,3.2699,3.2697,3.2703,3.2716,3.2696,3.2696,3.2698,3.2731,3.2733,3.2736,3.2713,3.2714,3.2714,3.2729,0,3.2642,3.2664,3.2663,3.2682,3.2691,3.2685,3.2694,3.2698,3.2699,3.2705,3.2705,3.2713,3.2706,3.2708,3.2714,3.2714,3.2723,3.2713,3.2718,3.2718,3.2716,3.2739,3.2742,3.2757,3.2731,3.2732,3.2732,0,3.2674,3.2681,3.2701,3.2703,3.2707,3.2716,3.2721,3.2729,3.2732,3.2731,3.2735,3.2731,3.2739,3.273,3.2741,3.2734,3.2736,3.2735,3.2736,3.2736,3.2726,3.2737,3.2762,3.2763,3.2735,3.2735,3.2735,0,3.2694,3.2708,3.2721,3.2724,3.2728,3.2733,3.2735,3.2738,3.2742,3.2746,3.2748,3.2753,3.2755,3.2758,3.2755,3.2749,3.2764,3.2756,3.2762,3.2762,3.2765,3.2765,3.2789,3.2769,3.2769,3.2769,3.2769,0,3.272,3.2731,3.2729,3.2737,3.2749,3.2746,3.2757,3.2758,3.276,3.2766,3.2761,3.2766,3.2762,3.2766,3.2764,3.2771,3.2772,3.2771,3.2769,3.277,3.277,3.2771,3.2769,3.277,3.277,3.2769,3.2769,0,3.2744,3.2743,3.2756,3.2758,3.2759,3.2767,3.2768,3.2774,3.2773,3.278,3.2781,3.278,3.2784,3.2781,3.2786,3.2784,3.2793,3.2791,3.2792,3.2791,3.2796,3.2795,3.282,3.2823,3.2803,3.2803,3.2803,0,3.276,3.2768,3.2771,3.2774,3.2776,3.2783,3.2786,3.2783,3.2786,3.2788,3.2793,3.2797,3.28,3.2807,3.2805,3.2808,3.2805,3.2814,3.2806,3.2805,3.2803,3.2802,3.2801,3.2815,3.2815,3.2815,3.2816,0,3.2787,3.2785,3.2791,3.2795,3.2799,3.2803,3.2806,3.2808,3.2805,3.2808,3.2813,3.2815,3.2819,3.2822,3.2824,3.2823,3.2818,3.2818,3.2819,3.282,3.2819,3.2817,3.2794,3.2818,3.2817,3.2817,3.2817,3.2817,3.2805,3.2811,3.2813,3.2818,3.282,3.2822,3.2827,3.2826,3.283,3.2833,3.283,3.2835,3.2835,3.2836,3.2836,3.2838,3.2835,3.2837,3.2837,3.2838,3.2838,3.282,3.2839,3.2839,3.2839,3.2839,3.2839,0,3.283,3.283,3.2835,3.2838,3.2842,3.2837,3.2839,3.2842,3.2846,3.2847,3.2849,3.2853,3.2855,3.2853,3.2854,3.2856,3.2853,3.2856,3.2855,3.2855,3.2842,3.284,3.2858,3.2858,3.2858,3.2858,3.2858,3.2858,3.2843,3.2852,3.285,3.2858,3.2858,3.2863,3.2864,3.2865,3.2865,3.2869,3.2871,3.287,3.2868,3.2869,3.287,3.2869,3.2869,3.2872,3.287,3.2858,3.2856,3.2854,3.2852,3.2873,3.2873,3.2883,3.2883,3.2883]}]]